[Date Prev][Date Next][Thread Prev][Thread Next][Date Index][Thread Index]

[jamsat-news:1077] jas2info #134



=========================   最新情報   ==============================

        Last updated :Wed.28-Apr.-1999 15:40 (JST) #134

====================================================================
   
     衛星情報 FOシリーズの軌道要素、テレメトリ、QSOの状況等を
   まとめてみました.

  1)  FO−29(ふじ3号)は、4月30日(金)13:55(JST)の
     パスではJARLのホームページのとうり新しい内容によるFMデジトーカで
     鳥の鳴き声といつものThis is JAS−2の音声でしたが、14:01
    (JST)より単一の変調音が重畳された信号になっていました.
       
 ■ 軌道要素1:「jamsat−keps:885」より
                 SB KEPS @ AMSAT  $ORB99120.N
                 2Line Orbital Elements 99120.AMSAT

  HR AMSAT ORBITAL ELEMENTS FOR AMATEUR SATELLITES IN NASA FORMAT
  FROM WA5QGD FORT WORTH,TX April 30, 1999
  SEND SUBSCRIBE/UNSUBSCRIBE TO majordomo@amsat.org ONLY
  BID: ORB99120.N

 DECODE 2-LINE ELSETS WITH THE FOLLOWING KEY:
 1 AAAAAU 00  0  0 BBBBB.BBBBBBBB  .CCCCCCCC  00000-0  00000-0 0  DDDZ
 2 AAAAA EEE.EEEE FFF.FFFF GGGGGGG HHH.HHHH III.IIII JJ.JJJJJJJJKKKKKZ
 KEY: A-CATALOGNUM B-EPOCHTIME C-DECAY D-ELSETNUM E-INCLINATION F-RAAN
 G-ECCENTRICITY H-ARGPERIGEE I-MNANOM J-MNMOTION K-ORBITNUM Z-CHECKSUM

 TO ALL RADIO AMATEURS BT

  FO-29
  1 24278U 96046B   99116.43260465  .00000000  00000-0  38239-4 0  2413
  2 24278  98.5556  74.5052 0350846 228.1528 128.9171 13.52666298132812
   
 ■ 軌道要素2:「jamsat−keps:886」より
                 SB KEPS @ AMSAT  $ORB99120.O
                 Orbital Elements  99120.OSCAR

  HR AMSAT ORBITAL ELEMENTS FOR OSCAR SATELLITES
  FROM WA5QGD FORT WORTH,TX April 30, 1999
  SEND SUBSCRIBE/UNSUBSCRIBE TO majordomo@amsat.org ONLY
  BID: ORB99120.O
  TO ALL RADIO AMATEURS BT

  Satellite: FO-29
 Catalog number: 24278
 Epoch time:      99116.43260465
 Element set:     241
 Inclination:       98.5556 deg
 RA of node:        74.5052 deg
 Eccentricity:    0.0350846
 Arg of perigee:   228.1528 deg
 Mean anomaly:     128.9171 deg
 Mean motion:   13.52666298 rev/day
 Decay rate:      .00000000 rev/day^2
 Epoch rev:           13281
 Checksum:              307
 -----------------------------------------------------------
  2)FO−29(ふじ3号)の 4月28日(水)のJAアナログテレメトリの
    一部分は次のようになっていました.24日以前のデータも一部分を掲示
    しておきます.
 
  AS13306C1   28Apr99
  JST  14:11 - 14:18
                                   
 HI HI AE C7 88 55                56 97 7B 5F 60 92 8F B0 8C B3 B1 B2 B1 AF 
 HI HI AE C7 88 55    86 FF 0D 00 56 5E    84    92 90 B0    B2 B1 B2 B1 AF 
 HI HI AE C7 88 55 0E 62 FF 0D 00 56 4A 38 84 60 92 90 B0 69 B2 B0 B1 B1 AF 
 HI HI AE C7 88 55 19 82 FF 0D 00 56 3E 61 7C 5F 92 8F B0 72 B2 B0 B1 B1 AF 
 HI HI AE C7 88 51 1E 85 FF 0D 00 56 8D 45 85 60 92 8F B0 89 B2 B0 B1 B1 AF 
 HI HI AE C7 88 51 03 86 FF 0D 00 56 6E 8F 66 5F 92 8F B0 8B B2 B0 B1 B1 AF 
 HI HI AE C7 88 55 08 86 FF 0D 00 56 51 2B 88 5F 92 90 B0 89 B2 B0 B1 B1 AF 
 HI HI AE C7 88 51 0E 86 0A 0D 00 5B          60 92 90 B0 7C B1 B0 B1 B0 AF 
 HI HI AE C7 88 55 13 86 FF 1E 00 56 3E 52 7E 60 93 90 B0 6B B1 B0 B1 B0 AF 
 HI HI AE C7 88 55 18 86 FF 0D 00 56 94 4C    60 93 90 B0 8D B1 B0 B1 B0 AF
 HI HI AE C7 88 55 1E 86 FF 0D 00 56 6F 83 6A 60 93 90 B0 76 B1 AF B1 B0 AF 
 HI HI AE C7 88 55 03 86 FF 0D 00 56 55 27 8D 60 93 90 B0 74 B1 B0 B1 B0 AF  

  AS13279C1   26Apr99
  JST  14:06- 14:21
                                                             B5 B3 B4 B5 B0 
 HI HI AE C7 88 55 19 FF FF 0D 00 56 92 68 75 60 93 90 B0 ED B5 B2 B4 B5 B1 
 HI HI AE C7 88 55 09 FF FF 0D 00 56 6B  B4   60 94 92 B0    B5 B2 B4 B5 B1 
 HI HI AE C7 88 55 IF FF FF 0D 00 56 5E 96 75 60 94 92 B0 8B B5 B2 B4 B5 B1 
 HI HI AE 07 88 55 13 FF FF 0D 00 56 8E 7F 8B 5F 92 8F 9E 87 B5 B2 B4 B5 B1 
 HI HI AE C7 88 55 18 FF FF 0D 00 56 74 6C 6F 51 95 92 B0 7E B5 B2 B4 B5 B1 
 HI HI AE C7 88 55 1D FE FF 0D 00 56 9I 9F 7C 60 94 90 BP 78 B5 B2 B4 B5 B1 
 HI HI AE C7 88 55 02 FF FF 0D 00 56 96 6D 8A 60 93 90 B0 88 B5 B1 B3 B5 B1 
 HI HI AE C7 88 55 07 FF FF 0D 00 56 5D 7C 6F 60 93 90 B0 79 B5 B1 B3 B5 B1
 HI HI AE C7 88 55 0C FF FF 0D 00 56 6A 84 83 60 92 90 B0    B5 B1 B3 B5 B1
 HI HI AE C7 88 55 0B FF FF 0D 00 56 93 60 79 60 93 90 B0 7C B5 B1 B3 B5 B1 
 HI HI AE 07 88 55 17 FF FF 0D 00 56 47 9E 6A 60 93 90 B0 78 B5 B1 B3 B5 B1 
 HI HI AE C7 88 55 1C FF FF 0D 00 56 84 75 7E 48 95 92 B0 8D B5 B1 B3 B5 B1 
 HI HI AE C7 88 55 01 FF FF 0D 00 56 7F 67 71 5F 92 8F B0 81 B5 B0 B3 B5 B1 
 HI HI AE C7 88 55 06 FF FF 0D 00 56             92 8F B0 8E B5 B0 B2 B5 B1 
 HI HI AE C7 88 55 0B FF FF 0D 00 56 93 5F 7B 5F 92 8F B0 5D B4 B0 B2 B4 B1 
 HI HI AE C7 88 55 10 FF FF 0D 00 56 6B 75 6E 5F 91 8F B0 78 B4 B0 B2 B5 B1 
 HI HI AE C7 88 55 15 FF FF 0D 09 56 3D 7B 77 5F 92 8F B0 82 B5 B0 B2 B5 B1 
 HI HI AE C7 88 55 1B FF 1E 25 00 56 9F 54 7B 5F 92 8F B0 B4 B4 B0 B2 B4 B1 
 HI HI AE C7 88 55 00 FF 0A 0D 00 56 9E 83 69 60 92 8F B0 6A B4 B0 B2 B4 B1 
 HI HI AE C7 88 55 05 FF FF 0D 00 56 4C 5C 79 5F 92 90 B1 66 B4 B0 B2 B4 B1 
 H1 HI AE C7 88 55 0A FF FF 0D 00 56 45    7D 60 92 90 B0 7C B4 AF B2 B4 B1 
 HI HI AE C7 88 55 0F FF FF 0D 00 56 50 7E 71 60 93 90 AF 6F B4 AF B2 B4 B1 
 HI HI AE C7 88 55 14 FF FF 0D 00 56 62 41 7F 60 92 90 B0 78 B4 AF B1 B4 B1 
 HI HI AE C7 88 55 19 FF FF 0D 00 56 98 72 76 60 93 90 B0 74 B4 AF B1 B4 B1 
 HI HI AE C7 88 55 1E FF FF 0D 00 56 28 67 76 60 83 90 B0 

  3)  JAアナログテレメトリの 4月28日(水)の
    
  JST 14:11 - 14:18のパスの最後の行目の換算例.

  テレメトリ    内   容	       換算値  単 位
3C	磁気センサーZ軸	=	41666.7	nT
3D	磁気センサX軸	=	19117.6	nT
4A	太陽電池発生電流	=	 1382.4	mA
4B	B充放電電流	=	 -118.4	mA
4C	B端子電圧	=	   15.8	V
4D	B中間端子電圧	=	    6.9	V
5A	バス電圧     	=   	   17.3	V
5B	JTA送信電力	=	  655.9	mW
5C 	構体温度1	=	   13.1	℃
5D	構体温度2	=	   13.5	℃
6A	構体温度3	=	   13.1	℃
6B	構体温度4	=	   13.5	℃
6C	Bセル温度	=	   13.9	℃

 *計算処理は OFFICE 97 を使用.
 
===============   FO−29(ふじ 3号)のQSO について   ===================

  [jamsat-news:1065]にJN1GKZ局 新井氏がCW運用状況を投稿されていましたので
 一部分ですが転載させて頂きました.
   
 4月11日午後のパスにJA0SUQ/JD1m 斎藤さんがFO-29にCWでQRVしていました。

   JN1GKZ 新井
     jn1gkz@jamsat.or.jp     http://www.din.or.jp/~m-arai/

==============================================================================

  3)FO−20(ふじ2号)のCWテレメトリは3月24日(水)18:07(JST)の
     パスではテレメトリーが単一トーンの連続音から唸りを伴った連続音、さらにゆらぎの
     ある信号になり、いままでより若干信号が弱くなっていました.
---------------------------------------------------------------------------

 ■ 軌道要素1 :出典は「ふじ3号」に同じ. 
  
  FO-20
  1 20480U 90013C   99116.56657794 -.00000073  00000-0 -83243-4 0  1361
  2 20480  99.0306 321.1098 0539902 281.5719  72.5282 12.83250777431712
 
 ■ 軌道要素2 :出典は「ふじ3号」に同じ.  
               
  Satellite: FO-20
  Catalog number: 20480
  Epoch time:      99116.56657794
  Element set:     136
  Inclination:       99.0306 deg
  RA of node:       321.1098 deg
  Eccentricity:    0.0539902
  Arg of perigee:   281.5719 deg
  Mean anomaly:      72.5282 deg
  Mean motion:   12.83250777 rev/day
  Decay rate:       -7.3e-07 rev/day^2
  Epoch rev:           43171
  Checksum:              319

  ====================    FO-20のQSOの状況 ==========================
   
  久しぶりにFO−20のCWによるQRVの状況がJA6BX局江崎さんが
 [jamsat:bb−4339]に投稿されてましたので転載させて頂きます.

   今日 19:10(JST) に 当局の LOS 直前でしたが、JA0SUQ/JD1 斉藤さんが南鳥島
 から FO-20 に CW で QRV されていました。 

	  Yoshio Esaki
	  esaki@m2.people.or.jp
	  ja6bx@jamsat.or.jp 
	  ja6bx@amsat.org

  =====================================================================

 4)JARL のホームページに新しい運用追加予定が記載されていましたのでご紹介します.
       ( http://www.jarl.or.jp/Japanese/3_Fuji/uy.htm )

        ■ ふじ3号/FO−29 ■  
  
  ふじ3号(JAS−2) 運用予定      
  
☆☆デジトーカ運用を4月30日〜5月10日に運用☆☆ 

  *** 運用日程について ***
     
   4月12日 〜 4月27日     アナログ系運用
   ☆4月30日  〜  5月10日   デジトーカ運用(:FM音声メッセージ送信)
   5月 7日 〜 5月17日     アナログ系運用
   5月17日 〜 5月24日     デジタル系1200bpsメールボックス運用
   5月24日 〜 5月31日     アナログ系運用

  *** 運用日程の変更について ***

☆4月28日からのデジトーカ運用は音声データのアップリンクが混信等の影響を受け
  てデータがUPしませんので予定を変更して,デジトーカ運用は4月30日から5月1
 0日迄行うことと致します。

☆4月30日から5月6日に行うデジトーカ運用の音声送信メッセージは新データUP予定ですのでお楽しみ下さ
い。

     ※運用日程の変更についても詳しく閲覧できるようになっていますので参照下さい.

        ■ ふじ2号/FO−20 ■      
            「ふじ2号」 現況                                                                                               
   JAS-1b/FO-20(ふじ2号)の不具合発生について
    JAS-1b(ふじ2号)のCWテレメトリ信号に,1997年10月12日12時
 (JST)の日本上空通過時,3桁の数字が繰り返されるはずが3個の長音の
  繰り返しとなっているという異常が発見されました。この不具合は次の通過時
  からは回復していましたが13日15時20分の通過時に再び観測されました。
  衛星のアナログ系中継モード動作は異常が無く,正常時のテレメトリ内容からは
  衛星の動作に異常は認められません。従って,直ちに衛星のミッションに影響す
  ることは無いと予想されますので,当面はアナログ系中継モードを継続します。
  衛星は既に打ち上げてから7年8ヶ月を経ておりますので,今後は監視を強化す
  る予定です。アマチュア各位のレポートをお待ちします.   
  
  以上  http://www.jarl.or.jp/Japanese/3_Fuji/fuji.htm
                                           
   =============   JAS-2 (ふじ3号)と現在までの情報   ===========
  
  A.電話によるふじ3号の運用情報
      社団法人日本アマチュア連盟によるサービス
           TEL .   03− 3942 − 1000
  B.アマチュア無線FAXサービス
      JARLによるふじ3号の軌道情報(オービットカレンダー)
         FAX No.  03− 3233 −0055
  C.WWWブラウザで情報を簡単に見れる人のためにJAS−2
     ふじ3号の衛星としての運用されるまでの名前)の概要、打ち上げ
     までの状況、運用中における状況を説明したホームページを紹介し
     ておきます.
     社団法人日本アマチュア無線連盟(JARL)のホームページ

          http://www.jarl.or.jp/Japanese/3_Fuji
 
     宇宙開発事業団(NASDA)ホームページ 
          http://www.nasda.go.jp/
         打上げ衛星 :地球観測プラットフォーム技術衛星(ADEOS) 
                       アマチュア衛星3号(JAS-2)
          http://yyy.tksc.nasda.go.jp/Home/Press/Press-j/jas-2_j.html        

  D.JAMSATによる軌道情報の活用
        JAMSATのホームページまたはjamsat−kepsの軌道要素より
      衛星の軌道情報を得る.
     JAMSATホームページ
               URL    http://www.jamsat.or.jp
       上記ホームページでは各地で行われるアマチュア通信衛星に関する
      ミューティングのお知らせや世界のアマチュア衛星に関する情報が
      満載されています.
   
 =========================================================================
       JAMSATのメンバーのご協力によりJH6MME(高山 秀造)が
    執筆・編集を担当しております.ご指摘の意見、疑問やこのようにしたら
    というアイデアがありましたら小さなことでもかまいませんので気軽に下
    記アドレスまでご連絡ください.jamsat−newsからjas2
    infoへの転載をJH4PHW局坂井さんに担当して頂いております.
                    E-mail : jh6mme@jamsat.or.jp : jh4phw@jamsat.or.jp
 ===============================   END  ===============================